User: anonymous   Login
Location: Banios
(43.0451°N, 0.2335°E)
Time: 20:27:06
(UTC+00:00)
Language:

USA 307 - Orbit

View from above orbital plane
View from above orbital plane
View from above satellite
View from above satellite

Ground track
Ground track

The orbit data is extracted from the following two-line orbital elements,

1 45875U 20046C   21124.92594040 0.00002200  00000-0  18231-3 0    09
2 45875  53.9792  94.4001 0007587 353.0485   6.9514 14.98373292    02
Epoch (UTC): 04 May 2021 22:13:21
Eccentricity: 0.0007587
inclination: 53.9792°
perigee height: 566 km
apogee height: 577 km
right ascension of ascending node: 94.4001°
argument of perigee: 353.0485°
revolutions per day: 14.98373292
mean anomaly at epoch: 6.9514°
orbit number at epoch: 0

The dashed part of the orbit path shows where the satellite is in the earth's shadow,  

DLR